Powrót do katalogu

STARLINK-30798

AktywnyŁącznośćVLEO
NORAD 58196·PAYLOAD·🇺🇸 United States

Wystrzelony Oct 30, 2023 z Cape Canaveral Space Force Station

Loading…

Następne Przeloty (najbliższe 24 godziny)

TLE

ŚwieżeSource: CelesTrak SupGP

Epoka: Sep 14, 2026, 15:03 UTC

1 58196C 23167X   26257.62756944  .00033796  00000+0  12247-2 0  2575
2 58196  43.0003 156.5618 0001575 265.3438 270.0515 15.27544078    16

Śledź STARLINK-30798 w czasie rzeczywistym z AllMySat

Download on the App Store